| time (UTC) | temp F | wind direction | speed knots | gust knots | rain 1hr in | rain 24hr in | rain mn in | humidity % | barometer mb |
| 20260831203518 | 83 | 52 | 2.6 | 6.1 | 0.00 | 0.00 | 0.00 | 34 | 1019.0 |
| 20260831202517 | 83 | 52 | 1.7 | 5.2 | 0.00 | 0.01 | 0.00 | 34 | 1019.1 |
| 20260831201517 | 83 | 48 | 1.7 | 6.1 | 0.00 | 0.09 | 0.00 | 37 | 1019.3 |
| 20260831200516 | 83 | 81 | 1.7 | 5.2 | 0.00 | 0.09 | 0.00 | 37 | 1019.3 |
| 20260831195516 | 82 | 44 | 1.7 | 4.3 | 0.00 | 0.09 | 0.00 | 41 | 1019.4 |
| 20260831194518 | 82 | 53 | 1.7 | 6.1 | 0.00 | 0.09 | 0.00 | 43 | 1019.5 |
| 20260831193957 | 80 | 70 | 2.6 | 10.4 | 0.00 | 0.09 | 0.00 | 43 | 1019.7 |
| 20260831192512 | 80 | 79 | 1.7 | 6.1 | 0.00 | 0.11 | 0.00 | 42 | 1019.8 |
| 20260831191510 | 81 | 46 | 1.7 | 5.2 | 0.00 | 0.11 | 0.00 | 41 | 1019.9 |
| 20260831190510 | 80 | 94 | 2.6 | 7.0 | 0.00 | 0.11 | 0.00 | 40 | 1020.1 |
| 20260831185510 | 80 | 98 | 1.7 | 6.1 | 0.00 | 0.11 | 0.00 | 41 | 1020.2 |
| 20260831184511 | 79 | 80 | 1.7 | 6.1 | 0.00 | 0.11 | 0.00 | 44 | 1020.2 |
| 20260831183512 | 79 | 46 | 1.7 | 4.3 | 0.00 | 0.11 | 0.00 | 42 | 1020.4 |
| 20260831182510 | 78 | 46 | 0.9 | 2.6 | 0.00 | 0.11 | 0.00 | 44 | 1020.5 |
| 20260831181510 | 77 | 46 | 0.0 | 2.6 | 0.00 | 0.11 | 0.00 | 44 | 1020.6 |
| 20260831180511 | 77 | 46 | 0.0 | 1.7 | 0.00 | 0.11 | 0.00 | 45 | 1020.7 |
| 20260831175508 | 77 | 46 | 0.0 | 2.6 | 0.00 | 0.11 | 0.00 | 46 | 1020.8 |
| 20260831174508 | 76 | 47 | 0.9 | 4.3 | 0.00 | 0.11 | 0.00 | 46 | 1020.8 |
| 20260831173509 | 76 | 79 | 0.0 | 1.7 | 0.00 | 0.11 | 0.00 | 48 | 1020.7 |
| 20260831172509 | 76 | 79 | 0.0 | 1.7 | 0.00 | 0.11 | 0.00 | 48 | 1020.8 |
| 20260831171508 | 75 | 79 | 0.0 | 1.7 | 0.00 | 0.11 | 0.00 | 50 | 1020.8 |
| 20260831170508 | 74 | 79 | 0.9 | 2.6 | 0.00 | 0.11 | 0.00 | 52 | 1020.8 |
| 20260831165508 | 74 | 79 | 0.9 | 3.5 | 0.00 | 0.11 | 0.00 | 54 | 1020.8 |
| 20260831164510 | 74 | 79 | 0.0 | 3.5 | 0.00 | 0.11 | 0.00 | 52 | 1020.8 |
| 20260831163507 | 74 | 79 | 0.9 | 3.5 | 0.00 | 0.11 | 0.00 | 54 | 1020.7 |
| 20260831162507 | 73 | 79 | 0.9 | 3.5 | 0.00 | 0.11 | 0.00 | 52 | 1020.7 |
| 20260831161506 | 74 | 79 | 0.0 | 1.7 | 0.00 | 0.11 | 0.00 | 54 | 1020.6 |
| 20260831160507 | 73 | 79 | 0.0 | 2.6 | 0.00 | 0.11 | 0.00 | 53 | 1020.5 |
| 20260831155506 | 74 | 79 | 0.0 | 2.6 | 0.00 | 0.11 | 0.00 | 50 | 1020.5 |
| 20260831154506 | 74 | 81 | 0.0 | 1.7 | 0.00 | 0.11 | 0.00 | 47 | 1020.5 |
| 20260831153506 | 73 | 94 | 0.0 | 1.7 | 0.00 | 0.11 | 0.00 | 50 | 1020.2 |
| 20260831152505 | 72 | 95 | 0.0 | 1.7 | 0.00 | 0.11 | 0.00 | 52 | 1020.4 |
| 20260831151859 | 71 | 143 | 0.0 | 1.7 | 0.00 | 0.11 | 0.00 | 54 | 1020.4 |
| 20260831151637 | 72 | 95 | 0.0 | 1.7 | 0.00 | 0.11 | 0.00 | 53 | 1020.5 |
| 20260831145500 | 70 | 98 | 1.7 | 6.1 | 0.00 | 0.11 | 0.00 | 56 | 1020.5 |
| 20260831144501 | 69 | 91 | 1.7 | 5.2 | 0.00 | 0.11 | 0.00 | 57 | 1020.5 |
| 20260831143459 | 69 | 81 | 0.9 | 3.5 | 0.00 | 0.11 | 0.00 | 61 | 1020.5 |
| 20260831142501 | 67 | 93 | 0.9 | 2.6 | 0.00 | 0.11 | 0.00 | 63 | 1020.4 |
| 20260831141500 | 66 | 167 | 1.7 | 2.6 | 0.00 | 0.11 | 0.00 | 66 | 1020.2 |
| 20260831140459 | 64 | 123 | 0.0 | 2.6 | 0.00 | 0.11 | 0.00 | 71 | 1020.1 |
| 20260831135500 | 63 | 193 | 0.9 | 2.6 | 0.00 | 0.11 | 0.00 | 75 | 1020.0 |
| 20260831134501 | 62 | 47 | 0.0 | 0.0 | 0.00 | 0.11 | 0.00 | 76 | 1019.8 |
| 20260831133455 | 62 | 47 | 0.0 | 2.6 | 0.00 | 0.11 | 0.00 | 72 | 1019.7 |
| 20260831132453 | 62 | 47 | 0.0 | 0.9 | 0.00 | 0.11 | 0.00 | 72 | 1019.5 |
| 20260831131938 | 61 | 47 | 0.9 | 2.6 | 0.00 | 0.11 | 0.00 | 74 | 1019.5 |
| 20260831130455 | 61 | 227 | 0.0 | 0.9 | 0.00 | 0.11 | 0.00 | 74 | 1019.4 |
| 20260831125453 | 61 | 86 | 0.0 | 0.9 | 0.00 | 0.11 | 0.00 | 72 | 1019.1 |
| 20260831124451 | 62 | 86 | 0.0 | 0.9 | 0.00 | 0.11 | 0.00 | 72 | 1019.1 |
| 20260831123453 | 62 | 86 | 0.9 | 2.6 | 0.00 | 0.11 | 0.00 | 69 | 1019.0 |
| 20260831122452 | 62 | 86 | 0.0 | 2.6 | 0.00 | 0.11 | 0.00 | 69 | 1018.8 |
| 20260831121453 | 63 | 340 | 0.0 | 0.0 | 0.00 | 0.11 | 0.00 | 67 | 1018.6 |
| 20260831120452 | 63 | 340 | 0.9 | 2.6 | 0.00 | 0.11 | 0.00 | 65 | 1018.6 |
| 20260831115452 | 63 | 340 | 0.0 | 0.0 | 0.00 | 0.11 | 0.00 | 68 | 1018.7 |
| 20260831114452 | 63 | 340 | 0.9 | 2.6 | 0.00 | 0.11 | 0.00 | 66 | 1018.6 |
| 20260831113452 | 63 | 340 | 0.0 | 1.7 | 0.00 | 0.11 | 0.00 | 71 | 1018.5 |
| 20260831112938 | 62 | 224 | 0.9 | 2.6 | 0.00 | 0.11 | 0.00 | 72 | 1018.4 |
| 20260831111930 | 63 | 169 | 0.0 | 1.7 | 0.00 | 0.11 | 0.00 | 70 | 1018.3 |
| 20260831110452 | 62 | 148 | 0.0 | 0.9 | 0.00 | 0.11 | 0.00 | 72 | 1018.4 |
| 20260831105453 | 62 | 98 | 0.0 | 2.6 | 0.00 | 0.11 | 0.00 | 72 | 1018.4 |
| 20260831104451 | 63 | 98 | 0.9 | 2.6 | 0.00 | 0.11 | 0.00 | 70 | 1018.4 |
| 20260831103453 | 63 | 53 | 0.0 | 1.7 | 0.00 | 0.11 | 0.00 | 68 | 1018.4 |
| 20260831102452 | 64 | 53 | 0.9 | 4.3 | 0.00 | 0.11 | 0.00 | 65 | 1018.0 |
| 20260831101453 | 65 | 96 | 1.7 | 3.5 | 0.00 | 0.11 | 0.00 | 60 | 1018.1 |
| 20260831100454 | 66 | 46 | 0.9 | 4.3 | 0.00 | 0.11 | 0.00 | 58 | 1018.0 |
| 20260831095450 | 70 | 225 | 2.6 | 7.0 | 0.00 | 0.11 | 0.00 | 45 | 1017.9 |
| 20260831094930 | 70 | 219 | 3.5 | 7.0 | 0.00 | 0.11 | 0.00 | 45 | 1017.8 |
| 20260831093450 | 69 | 232 | 3.5 | 6.1 | 0.00 | 0.11 | 0.00 | 47 | 1017.6 |
| 20260831092450 | 68 | 225 | 3.5 | 6.1 | 0.00 | 0.11 | 0.00 | 50 | 1017.6 |
| 20260831091449 | 66 | 231 | 2.6 | 4.3 | 0.00 | 0.11 | 0.00 | 54 | 1017.7 |
| 20260831090936 | 63 | 219 | 0.0 | 0.0 | 0.00 | 0.11 | 0.00 | 65 | 1017.7 |
| 20260831085449 | 63 | 202 | 0.0 | 0.0 | 0.00 | 0.11 | 0.00 | 63 | 1017.8 |
| 20260831084446 | 64 | 182 | 0.0 | 0.0 | 0.00 | 0.11 | 0.00 | 63 | 1017.9 |
| 20260831083445 | 64 | 180 | 0.0 | 0.0 | 0.00 | 0.11 | 0.00 | 60 | 1017.9 |
| 20260831082444 | 66 | 181 | 0.0 | 0.0 | 0.00 | 0.11 | 0.00 | 55 | 1017.8 |
| 20260831081444 | 66 | 181 | 0.0 | 0.9 | 0.00 | 0.11 | 0.00 | 56 | 1018.0 |
| 20260831080444 | 67 | 181 | 0.0 | 0.9 | 0.00 | 0.11 | 0.00 | 54 | 1017.9 |
| 20260831075443 | 67 | 82 | 0.9 | 2.6 | 0.00 | 0.11 | 0.00 | 54 | 1018.1 |
| 20260831074924 | 68 | 81 | 0.9 | 3.5 | 0.00 | 0.11 | 0.00 | 53 | 1018.1 |
| 20260831073444 | 67 | 238 | 0.9 | 2.6 | 0.00 | 0.11 | 0.00 | 57 | 1018.5 |
| 20260831072443 | 67 | 87 | 0.0 | 2.6 | 0.00 | 0.11 | 0.00 | 55 | 1018.6 |
| 20260831071445 | 68 | 87 | 2.6 | 6.1 | 0.00 | 0.11 | 0.00 | 53 | 1018.6 |
| 20260831070441 | 69 | 156 | 2.6 | 5.2 | 0.00 | 0.11 | 0.00 | 50 | 1018.5 |
| 20260831065441 | 70 | 234 | 3.5 | 7.0 | 0.00 | 0.11 | 0.00 | 48 | 1018.6 |
| 20260831064442 | 70 | 231 | 1.7 | 4.3 | 0.00 | 0.11 | 0.00 | 48 | 1018.5 |
| 20260831063442 | 71 | 233 | 2.6 | 4.3 | 0.00 | 0.11 | 0.00 | 48 | 1018.6 |
| 20260831062442 | 70 | 230 | 1.7 | 2.6 | 0.00 | 0.11 | 0.00 | 48 | 1018.7 |
| 20260831061441 | 70 | 187 | 2.6 | 4.3 | 0.00 | 0.11 | 0.00 | 48 | 1018.7 |
| 20260831060916 | 70 | 182 | 3.5 | 6.1 | 0.00 | 0.11 | 0.00 | 47 | 1018.7 |
| 20260831055443 | 71 | 212 | 2.6 | 10.4 | 0.00 | 0.11 | 0.11 | 47 | 1018.6 |
| 20260831054443 | 71 | 260 | 1.7 | 7.0 | 0.00 | 0.11 | 0.11 | 48 | 1019.0 |
| 20260831053436 | 71 | 233 | 3.5 | 9.6 | 0.00 | 0.11 | 0.11 | 48 | 1019.1 |
| 20260831052436 | 72 | 187 | 6.1 | 13.9 | 0.00 | 0.11 | 0.11 | 47 | 1019.1 |
| 20260831051435 | 72 | 222 | 3.5 | 7.8 | 0.00 | 0.11 | 0.11 | 47 | 1019.5 |
| 20260831050437 | 72 | 227 | 5.2 | 9.6 | 0.00 | 0.11 | 0.11 | 47 | 1019.9 |
| 20260831045435 | 72 | 226 | 4.3 | 9.6 | 0.00 | 0.11 | 0.11 | 47 | 1020.0 |
| 20260831044435 | 69 | 259 | 1.7 | 7.8 | 0.00 | 0.11 | 0.11 | 56 | 1020.1 |
| 20260831043436 | 66 | 176 | 0.0 | 1.7 | 0.00 | 0.11 | 0.11 | 70 | 1019.8 |
| 20260831042914 | 66 | 203 | 1.7 | 7.8 | 0.00 | 0.11 | 0.11 | 70 | 1019.7 |
| 20260831041914 | 65 | 86 | 0.0 | 1.7 | 0.00 | 0.11 | 0.11 | 73 | 1019.3 |
| 20260831040430 | 64 | 71 | 0.0 | 2.6 | 0.00 | 0.11 | 0.11 | 76 | 1019.1 |
| 20260831035429 | 64 | 67 | 0.0 | 1.7 | 0.00 | 0.11 | 0.11 | 76 | 1018.7 |
| 20260831034429 | 65 | 67 | 0.0 | 0.9 | 0.00 | 0.11 | 0.11 | 73 | 1018.7 |
| 20260831033911 | 65 | 67 | 0.0 | 0.9 | 0.00 | 0.11 | 0.11 | 72 | 1018.7 |
| 20260831032431 | 65 | 66 | 0.0 | 1.7 | 0.00 | 0.11 | 0.11 | 73 | 1018.8 |
| 20260831031430 | 65 | 67 | 0.0 | 0.0 | 0.00 | 0.11 | 0.11 | 73 | 1018.7 |
| 20260831030430 | 64 | 67 | 1.7 | 7.8 | 0.00 | 0.11 | 0.11 | 73 | 1018.6 |
| 20260831025429 | 65 | 311 | 0.9 | 1.7 | 0.00 | 0.11 | 0.11 | 71 | 1018.5 |
| 20260831024430 | 65 | 302 | 0.9 | 2.6 | 0.00 | 0.11 | 0.11 | 70 | 1018.4 |
| 20260831023900 | 65 | 259 | 0.0 | 0.9 | 0.00 | 0.11 | 0.11 | 71 | 1018.4 |
| 20260831022427 | 65 | 259 | 0.0 | 0.9 | 0.00 | 0.11 | 0.11 | 70 | 1018.1 |
| 20260831021428 | 67 | 259 | 0.9 | 1.7 | 0.00 | 0.11 | 0.11 | 68 | 1017.9 |
| 20260831020913 | 67 | 259 | 0.9 | 2.6 | 0.00 | 0.11 | 0.11 | 67 | 1017.8 |
| 20260831015426 | 68 | 75 | 0.9 | 2.6 | 0.00 | 0.11 | 0.11 | 65 | 1017.8 |
| 20260831014425 | 69 | 75 | 0.0 | 0.9 | 0.00 | 0.11 | 0.11 | 63 | 1017.7 |
| 20260831013426 | 69 | 261 | 0.0 | 0.9 | 0.00 | 0.11 | 0.11 | 63 | 1017.8 |
| 20260831012425 | 71 | 261 | 0.0 | 1.7 | 0.00 | 0.11 | 0.11 | 60 | 1017.8 |
| 20260831011902 | 71 | 261 | 0.9 | 1.7 | 0.00 | 0.11 | 0.11 | 55 | 1017.7 |
| 20260831010424 | 72 | 261 | 0.9 | 3.5 | 0.00 | 0.11 | 0.11 | 56 | 1017.6 |
| 20260831005425 | 73 | 81 | 0.9 | 5.2 | 0.00 | 0.11 | 0.11 | 52 | 1017.6 |
| 20260831004426 | 74 | 81 | 1.7 | 3.5 | 0.00 | 0.11 | 0.11 | 52 | 1017.8 |
| 20260831003426 | 75 | 297 | 3.5 | 6.1 | 0.00 | 0.11 | 0.11 | 49 | 1017.7 |
| 20260831002859 | 78 | 303 | 6.1 | 10.4 | 0.00 | 0.11 | 0.11 | 43 | 1017.7 |
| 20260831001421 | 79 | 179 | 6.1 | 10.4 | 0.00 | 0.11 | 0.11 | 37 | 1017.4 |
| 20260831000859 | 79 | 174 | 2.6 | 9.6 | 0.00 | 0.11 | 0.11 | 38 | 1017.6 |
| 20260830235422 | 79 | 236 | 0.9 | 3.5 | 0.00 | 0.11 | 0.11 | 40 | 1017.4 |
| 20260830234422 | 80 | 243 | 0.9 | 4.3 | 0.00 | 0.11 | 0.11 | 38 | 1017.4 |
| 20260830233420 | 80 | 181 | 5.2 | 11.3 | 0.00 | 0.11 | 0.11 | 37 | 1017.3 |
| 20260830232420 | 79 | 170 | 7.0 | 15.6 | 0.00 | 0.11 | 0.11 | 41 | 1017.1 |
| 20260830231419 | 78 | 175 | 5.2 | 12.2 | 0.00 | 0.11 | 0.11 | 40 | 1017.0 |
| 20260830230418 | 78 | 193 | 6.1 | 11.3 | 0.00 | 0.11 | 0.11 | 40 | 1017.1 |
| 20260830225418 | 78 | 140 | 7.0 | 13.0 | 0.00 | 0.11 | 0.11 | 42 | 1016.9 |
| 20260830224419 | 77 | 188 | 9.6 | 16.5 | 0.00 | 0.11 | 0.11 | 41 | 1017.0 |
| 20260830223418 | 76 | 172 | 5.2 | 13.9 | 0.00 | 0.11 | 0.11 | 41 | 1017.1 |
| 20260830222419 | 74 | 225 | 3.5 | 7.8 | 0.00 | 0.11 | 0.11 | 47 | 1017.3 |
| 20260830221418 | 72 | 195 | 3.5 | 7.8 | 0.00 | 0.11 | 0.11 | 50 | 1017.6 |
| 20260830220420 | 71 | 46 | 1.7 | 5.2 | 0.00 | 0.11 | 0.11 | 62 | 1017.7 |
| 20260830220336 | 71 | 47 | 3.5 | 7.0 | 0.00 | 0.11 | 0.11 | 60 | 1017.9 |
| 20260830214416 | 72 | 52 | 4.3 | 9.6 | 0.00 | 0.11 | 0.11 | 56 | 1018.3 |
| 20260830213418 | 70 | 196 | 0.9 | 6.1 | 0.00 | 0.11 | 0.11 | 59 | 1018.6 |
| 20260830212404 | 68 | 44 | 0.9 | 6.1 | 0.02 | 0.11 | 0.11 | 73 | 1019.0 |
| 20260830211405 | 69 | 60 | 3.5 | 6.1 | 0.09 | 0.11 | 0.11 | 63 | 1019.2 |
| 20260830210404 | 68 | 70 | 5.2 | 9.6 | 0.09 | 0.11 | 0.11 | 64 | 1019.1 |
| 20260830205404 | 68 | 91 | 2.6 | 6.1 | 0.09 | 0.11 | 0.11 | 67 | 1019.2 |
| 20260830204849 | 67 | 224 | 2.6 | 8.7 | 0.09 | 0.11 | 0.11 | 63 | 1019.3 |